Regional Weather Roundup
Issued by NWS

Home | Current Version | Previous Version | Graphics & Text | Print | Product List | Glossary On
Versions: 1 2 3 4 5 6 7 8 9 10 11 12 13 14 15 16 17 18 19 20 21 22 23 24 25 26 27 28 29 30 31 32 33 34 35 36 37 38 39 40 41 42 43 44 45 46 47 48 49 50
000
ASUS43 KLOT 301506
RWRIL

ILLINOIS REGIONAL WEATHER ROUNDUP
NATIONAL WEATHER SERVICE CHICAGO/ROMEOVILLE IL
1000 AM CDT TUE SEP 30 2014

NOTE: "FAIR" INDICATES FEW OR NO CLOUDS BELOW 12,000 FEET WITH NO
SIGNIFICANT WEATHER AND/OR OBSTRUCTIONS TO VISIBILITY.

* THESE STATIONS ARE NOT UNDER NWS QUALITY CONTROL. THEY ALSO MAY NOT
  REPORT WEATHER SUCH AS PRECIPITATION OR FOG.

ILZ001-002-007-009-015-016-024-301600-
NORTHWEST ILLINOIS

CITY           SKY/WX    TMP DP  RH WIND       PRES   REMARKS
MOLINE         NOT AVBL
SAVANNA*       CLOUDY    52  44  75 E9        30.07S
$$

ILZ003-004-008-010-011-017-018-301600-
NORTH CENTRAL ILLINOIS

CITY           SKY/WX    TMP DP  RH WIND       PRES   REMARKS
ROCKFORD       CLOUDY    47  41  80 NE8       30.10S
FREEPORT*      CLOUDY    47  41  81 E6        30.10S
ROCHELLE*      CLOUDY    48  41  75 NE8       30.08S
DE KALB*       CLOUDY    47  42  82 NE10      30.07F
PERU*          CLOUDY    52  45  75 NE12      30.06F
$$

ILZ005-006-012>014-019>023-301600-
NORTHEAST ILLINOIS

CITY           SKY/WX    TMP DP  RH WIND       PRES   REMARKS
CHICAGO-OHARE  CLOUDY    50  45  83 N10       30.05F
CHICAGO-MIDWAY DRIZZLE   52  49  89 N8        30.05S FOG
AURORA         CLOUDY    51  44  77 NE9       30.07S
LANSING*       CLOUDY    55  49  81 NE9       30.04R
JOLIET*        CLOUDY    51  46  83 N7        30.06R
WAUKEGAN       NOT AVBL
DUPAGE AIRPORT CLOUDY    52  45  77 N12       30.06S
KANKAKEE*      CLOUDY    56  49  78 NE6       30.04S
WHEELING       CLOUDY    52  45  77 N8        30.06S
MORRIS*        CLOUDY    53  48  81 N6        30.05S
ROMEOVILLE*    CLOUDY    52  46  81 NE9       30.06R
NORTHERLY ISL    N/A     53  49  86 N12         N/A
$$

LMZ740>746-301600-
SOUTHERN LAKE MICHIGAN

STATION/POSITION SKY/WX   TEMP    WIND        PRES    VSBY  WAVE
                          AIR SEA DIR/SP/G                  HT/PER
                          (F)     (DEG/KT/KT) (MB)    (MI)  (FT/S)
SOUTHERN BUOY              53 61  360/ 16/ 19 1017.0S         6/ 7
WAUKEGAN HARBOR                   330/  9/ 14   N/A
HARRISON CRIB              53     360/ 16/ 19   N/A
BURNHAM HARBOR             53     350/ 12/ 15   N/A
CALUMET HARBOR             54     360/ 10/ 13 1016.1S
MICHIGAN CITY              53     350/ 18/ 22   N/A
MICHIGAN CITY 6N           55 64   10/ 14/ 19   N/A           6/ 2
ST. JOSEPH                 54 62   30/ 12/ 17   N/A           6/ 2
$$

ILZ025>027-034>036-040-047-049-050-058-095>099-301600-
WEST-CENTRAL ILLINOIS

CITY           SKY/WX    TMP DP  RH WIND       PRES   REMARKS
QUINCY         FOG       59  58  96 E12       29.99R VSB 1/2
GALESBURG*     CLOUDY    54  51  92 NE9       30.03R FOG
MACOMB*        CLOUDY    58  55  92 E7        30.04R
JACKSONVILLE*  FOG       60  59  97 E8        30.01S VSB 3/4
PITTSFIELD*    FOG       60  58  94 NE6       30.00S VSB 1/4
$$

ILZ028>032-037-038-041>044-048-051>054-059>061-301600-
CENTRAL ILLINOIS

CITY           SKY/WX    TMP DP  RH WIND       PRES   REMARKS
PONTIAC        CLOUDY    57  50  77 NE7       30.04S
BLOOMINGTON    CLOUDY    56  51  83 NE13        N/A
DECATUR        CLOUDY    58  55  90 E10       30.01S
PEORIA         CLOUDY    59  51  75 NE10      30.03S
LACON*         CLOUDY    55  47  75 E6        30.04S
LINCOLN*       CLOUDY    59  54  83 NE7       30.00S
SPRINGFIELD    CLOUDY    59  56  89 NE12      30.02R FOG
TAYLORVILLE    CLOUDY    55  55 100 NE7       30.00S FOG
$$

ILZ033-039-045-046-055>057-062-063-301600-
EAST-CENTRAL ILLINOIS

CITY           SKY/WX    TMP DP  RH WIND       PRES   REMARKS
DANVILLE*      PTSUNNY   58  51  76 N12       29.99S
RANTOUL*       CLOUDY    58  51  77 NE9       30.02F
MATTOON        CLOUDY    58  55  90 NE9       29.99S
PARIS*         CLOUDY    59  55  86 NE7       30.01S
$$

ILZ079-100>102-301600-
SOUTHWEST ILLINOIS

CITY           SKY/WX    TMP DP  RH WIND       PRES   REMARKS
ALTON          MOSUNNY   72  61  68 E6        29.97F
BELLEVILLE     SUNNY     74  62  66 N5        29.96F
CAHOKIA*       SUNNY     73  61  65 N3        29.97R
SPARTA*        SUNNY     74  58  57 CALM      29.98S
$$

ILZ064>066-069>071-074>076-080>082-084>086-088>090-092>094-301600-
SOUTH-CENTRAL ILLINOIS

CITY           SKY/WX    TMP DP  RH WIND       PRES   REMARKS
CARBONDALE     SUNNY     73  58  59 CALM      29.97S
CAIRO*         SUNNY     74  66  74 CALM      29.97S
EFFINGHAM*     CLOUDY    60  57  91 NE3       29.99S FOG
MARION         MOSUNNY   73  59  60 CALM      29.98S
CENTRALIA*     SUNNY     72  57  59 CALM      29.98R
SALEM*         SUNNY     73  64  73 CALM      29.97S
METROPOLIS*    SUNNY     75  60  59 CALM      29.97S
$$

ILZ067-068-072-073-078-083-087-091-301600-
SOUTHEAST ILLINOIS

CITY           SKY/WX    TMP DP  RH WIND       PRES   REMARKS
LAWRENCEVILLE  MOSUNNY   64  59  83 N7        29.98R HAZE
FLORA*         SUNNY     67  58  72 N5        29.98R
FAIRFIELD*     SUNNY     72  61  68 N3        29.97R
HARRISBURG*    SUNNY     72  62  71 CALM      29.97F HAZE
ROBINSON*      CLOUDY    62  62  99 N6        29.99S FOG
CARMI*         SUNNY     75  62  64 CALM      29.97R
$$

ABBREVIATIONS USED IN REMARKS
   TC - TEMPERATURE IN CELSIUS
  WCI - WIND CHILL INDEX
   HX - HEAT INDEX
  VSB - VISIBILITY
$$



USA.gov is the U.S. government's official web portal to all federal, state and local government web resources and services.